TimeEDT,TemperatureF,Dew PointF,Humidity,Sea Level PressureIn,VisibilityMPH,Wind Direction,Wind SpeedMPH,Gust SpeedMPH,PrecipitationIn,Events,Conditions,WindDirDegrees,DateUTC
12:54 AM,48.9,37.9,66,30.11,10.0,West,10.4,-,N/A,,Partly Cloudy,270,2013-05-27 04:54:00
1:54 AM,48.0,37.9,68,30.11,10.0,West,12.7,-,N/A,,Partly Cloudy,260,2013-05-27 05:54:00
2:54 AM,48.9,37.9,66,30.11,10.0,West,11.5,-,N/A,,Clear,270,2013-05-27 06:54:00
3:54 AM,46.9,37.9,71,30.11,10.0,WSW,10.4,-,N/A,,Clear,250,2013-05-27 07:54:00
4:54 AM,46.9,39.0,74,30.11,10.0,West,6.9,-,N/A,,Partly Cloudy,270,2013-05-27 08:54:00
5:54 AM,48.0,39.0,71,30.12,10.0,West,12.7,-,N/A,,Partly Cloudy,270,2013-05-27 09:54:00
6:54 AM,50.0,39.0,66,30.12,10.0,West,12.7,-,N/A,,Partly Cloudy,280,2013-05-27 10:54:00
7:54 AM,54.0,39.0,57,30.12,10.0,WNW,10.4,18.4,N/A,,Partly Cloudy,290,2013-05-27 11:54:00
8:54 AM,59.0,39.0,48,30.13,10.0,WNW,12.7,19.6,N/A,,Partly Cloudy,290,2013-05-27 12:54:00
9:54 AM,63.0,37.9,40,30.13,10.0,NW,15.0,20.7,N/A,,Partly Cloudy,310,2013-05-27 13:54:00
10:54 AM,64.9,34.0,32,30.12,10.0,WNW,12.7,20.7,N/A,,Partly Cloudy,290,2013-05-27 14:54:00
11:54 AM,68.0,34.0,28,30.12,10.0,NW,11.5,21.9,N/A,,Partly Cloudy,320,2013-05-27 15:54:00
12:54 PM,68.0,32.0,26,30.10,10.0,West,17.3,24.2,N/A,,Partly Cloudy,280,2013-05-27 16:54:00
1:54 PM,70.0,33.1,26,30.09,10.0,West,11.5,21.9,N/A,,Partly Cloudy,270,2013-05-27 17:54:00
2:54 PM,71.1,33.1,25,30.08,10.0,West,15.0,19.6,N/A,,Partly Cloudy,270,2013-05-27 18:54:00
3:54 PM,72.0,32.0,23,30.07,10.0,WNW,13.8,18.4,N/A,,Partly Cloudy,290,2013-05-27 19:54:00
4:54 PM,72.0,30.9,22,30.07,10.0,WNW,12.7,24.2,N/A,,Scattered Clouds,300,2013-05-27 20:54:00
5:54 PM,72.0,30.9,22,30.08,10.0,WNW,12.7,-,N/A,,Scattered Clouds,300,2013-05-27 21:54:00
6:54 PM,71.1,32.0,24,30.09,10.0,NW,11.5,-,N/A,,Scattered Clouds,310,2013-05-27 22:54:00
7:54 PM,69.1,32.0,25,30.11,10.0,NNW,6.9,-,N/A,,Partly Cloudy,330,2013-05-27 23:54:00
8:54 PM,66.0,35.1,32,30.12,10.0,Calm,Calm,-,N/A,,Clear,0,2013-05-28 00:54:00
9:54 PM,60.1,41.0,49,30.14,10.0,ESE,4.6,-,N/A,,Clear,120,2013-05-28 01:54:00
10:54 PM,59.0,43.0,55,30.16,10.0,Calm,Calm,-,N/A,,Clear,0,2013-05-28 02:54:00
11:54 PM,55.9,44.1,64,30.18,10.0,NE,3.5,-,N/A,,Clear,40,2013-05-28 03:54:00